Location: Plainartige
(45.6866°N, 1.7993°E)
Time: 04:03:33
(UTC+00:00)

Oscar 19 - Pass Details

Date: 08 July 2022
Orbit: 773 x 790 km, 98.8° (Epoch: 14 August)

Event Time Altitude Azimuth Distance (km) Brightness Sun altitude
Rises 03:18:18 0° 16° (NNE) 3,261 15.0 -8.1°
Reaches altitude 10° 03:20:39 10° 20° (NNE) 2,329 14.3 -7.8°
Maximum altitude 03:25:45 66° 102° (ESE) 848 11.0 -7.1°
Drops below altitude 10° 03:30:50 10° 185° (S) 2,316 12.7 -6.5°
Sets 03:33:09 0° 188° (S) 3,241 13.4 -6.2°
